STARLINK-35927, 66624

Orbit data source: Space-Track

STARLINK-35927, 66624 is a payload satellite owned by SpaceX/Seattle (US) in LEO that was launched on Sun, 23 Nov 2025 UTC via an FALCON 9 launch vehicle from the Air Force Western Test Range (AFWTR). Payload-class satellites include a variety of spacecraft equipped with specific instruments for various scientific and technological missions. These include communications satellites like Starlink; space stations such as the ISS; scientific satellites like the Hubble; Earth observation satellites from companies like Planet Labs, Umbra, and HawkEye 360; GPS; miniature CubeSats for education and research; and military/defense satellites.

Loading next visibility...
Identifier
66624, 2025-271H
Orbit
LEO
Country
Flag of USUS
Related business
Manufacturer
SpaceX/Seattle
Mission
Operational Commercial Communications
Bus & Motor
STARLINK V2MO, Unknown motor
Mass
575 kg wet, ~530 kg dry
Launch date (UTC)
2025-11-23 (2 months ago)
Launch vehicle
FALCON 9
Launch site
Air Force Western Test Range (AFWTR)
Object type
Payload
Rocket body
Debris
Shape & HBR
Box + 2 Pan, 17.7 m
Radar Cross Section
36.964 m²

Expand to show TLE details & history
Last TLE update: 5 hours ago

TLE from 5 hours ago
0 STARLINK-35927
1 66624U 25271H   26037.09694458  .00041637  00000-0  14105-2 0  9998
2 66624  53.1573 286.4000 0001412  81.0181 279.0980 15.30188904 12734
Epoch: 2026-02-06T02:19Z
TLE epoch observation values (Epoch: 2026-02-06T02:19:36.011Z)
Latitude
0.00001°
Longitude
115.26024°
Altitude
475.995 km
Speed
7.629 km/s
True Right ascension
19h 05m 36s
True Declination
0° 00' 00"
Sunlit
Object was in daylight at epoch
Visualization orbit readout
Latitude
Unknown
Longitude
Unknown
Altitude
Unknown
Speed
Unknown
Apparent Right ascension
Unknown
Apparent Declination
Unknown
Sunlit
N/A
Visualization observer readout
Local Sidereal Time
09:06:25
Azimuth
Unknown
Elevation
Unknown
Doppler factor
Unknown
Orbital elements
Apogee altitude
476.473 km
Perigee altitude
474.537 km
Semi-major axis
6,853.642 km
Eccentricity
0.00014
Inclination
53.1573°
RAAN
286.4°
Arg. of periapsis
81.0181°
True anomaly
279.08202°
Mean anomaly
279.098°
Eccentric anomaly
279.09001°
Mean motion
3.82526 °/min
Orbital period
94.11 mins
BSTAR
0.0014105
Loading maneuver chart data...
Computing Atmospheric mass density...
Loading historical data...
Loading historical data...
Loading historical data...
Loading historical data...
Loading historical data...
Loading historical data...
Loading historical data...

Documentation

Showing up to 5 results
|